Regional Weather Roundup
Issued by NWS

Home | Current Version | Previous Version | Graphics & Text | Print | Product List | Glossary On
Versions: 1 2 3 4 5 6 7 8 9 10 11 12 13 14 15 16 17 18 19 20 21 22 23 24 25 26 27 28 29 30 31 32 33 34 35 36 37 38 39 40 41 42 43 44 45 46 47 48 49 50
000
ASUS43 KMPX 211001
RWRMN
WEATHER ROUNDUP FOR MINNESOTA
NATIONAL WEATHER SERVICE TWIN CITIES/CHANHASSEN MN
400 AM CST SUN JAN 21 2018


NOTE: "FAIR" INDICATES FEW OR NO CLOUDS BELOW 12,000 FEET WITH NO
SIGNIFICANT WEATHER AND/OR OBSTRUCTIONS TO VISIBILITY. N/A MEANS
CURRENT SKY AND/OR WEATHER CONDITIONS ARE NOT AVAILABLE.

MNZ060>063-068>070-211100-
   Twin Cities Metro

CITY           SKY/WX    TMP DP  RH WIND       PRES   REMARKS
TWIN CITIES    CLOUDY    33  31  92 CALM      29.96S
ST PAUL        CLOUDY    31  30  96 CALM      29.97F
CRYSTAL        CLOUDY    33  28  81 CALM      29.95S
BLAINE         FAIR      36  30  80 CALM      29.95F
LAKEVILLE        N/A     27  27 100 NW3       29.95F
EDEN PRAIRIE   CLOUDY    33  30  88 CALM      29.94F
SOUTH ST PAUL  CLOUDY    31  31  98 CALM      29.96S
LAKE ELMO      CLOUDY    32  32 100 CALM      29.97S
$$
MNZ001>005-007-008-013>017-022>024-027-028-211100-
   Northwest Minnesota

CITY           SKY/WX    TMP DP  RH WIND       PRES   REMARKS
BEMIDJI        FAIR      14  13  92 CALM      29.94R
HALLOCK        FOG       18  16  93 N5        29.99S VSB 1/4 WCI  11
ROSEAU         HAZE      18  12  79 NW7       29.96S VSB 1/4 WCI   8
WARROAD        FOG       21  18  86 NW3       29.96S VSB 1/4
THIEF RVR FALL FAIR      16  14  93 NW7       29.97S FOG     WCI   6
CROOKSTON      FOG       18  16  93 NW3       30.00R VSB 3/4
FOSSTON        FOG       12  10  92 CALM      29.96R VSB 3/4
DETROIT LAKES  FAIR      21  21 100 CALM      29.96S
MOORHEAD       FAIR      25  21  86 N3        29.99R
PARK RAPIDS    HAZE      18  13  80 NW3       29.93S VSB 1
MAHNOMEN       FOG       21  20  96 CALM      29.96R VSB 1/2
$$
MNZ006-009>011-018-025>026-211100-
   North Central Minnesota

CITY           SKY/WX    TMP DP  RH WIND       PRES   REMARKS
BAUDETTE       FAIR      16  15  96 NW7       29.93S WCI   6
FLAG ISLAND    CLOUDY    23  21  93 NW6       29.94S FOG     WCI  16
INTL FALLS     FAIR      14  12  92 CALM      29.93R FOG
WASKISH        FAIR      21  21 100 W7        29.94S WCI  13
BIG FORK       FAIR      12  10  92 CALM      29.94R
LONGVILLE      FAIR      18  16  93 CALM      29.95R
GRAND RAPIDS   FAIR      17  16  95 CALM      29.96F
CRANE LAKE     FAIR      14  12  92 CALM      29.95S
ORR            FAIR      19  18  93 CALM      29.90S
COOK           CLOUDY    12  10  92 CALM      29.94R
WALKER         FAIR      23  22  96 CALM      29.95R
$$
MNZ012-019>021-037-211100-
   Northeast Minnesota

CITY           SKY/WX    TMP DP  RH WIND       PRES   REMARKS
DULUTH         FAIR      29  25  85 N9        29.93S WCI  20
HIBBING        FAIR      10   7  87 CALM      29.93F FOG
EVELETH        FAIR      12   8  84 CALM      29.95F
DULUTH HARBOR  FAIR      30  27  86 SW3       29.97S
TWO HARBORS    FAIR      30  25  80 NW3       29.92S
SILVER BAY     FAIR      19  18  93 CALM      29.93R
GRAND MARAIS     N/A     29  28  96 CALM      29.96R
G MARAIS ARPRT FAIR      19  16  86 CALM      29.90R
$$
MNZ029>031-032-039>041-046>048-054>057-064-211100-
   West Central Minnesota

CITY           SKY/WX    TMP DP  RH WIND       PRES   REMARKS
FERGUS FALLS   FAIR      28  28 100 CALM      29.95S
WHEATON        CLOUDY    32  27  80 NW5       29.99R WCI  27
MORRIS         CLOUDY    34  28  80 NW6       29.95S WCI  29
ALEXANDRIA     FAIR      32  29  88 N5        29.95R WCI  27
ELBOW LAKE     FAIR      30  28  94 N5        29.96S WCI  25
WADENA         FAIR      27  27 100 CALM      29.94S
GLENWOOD       MOCLDY    32  30  93 CALM      29.95S
APPLETON       CLOUDY    37  28  70 NW5       29.95F
BENSON         CLOUDY    34  28  80 CALM      29.97F
ORTONVILLE     CLOUDY    36  27  69 NW3       29.96S
MADISON        CLOUDY    37  30  75 NW3       29.96S
WILLMAR        FAIR      36  30  80 CALM      29.97S
$$
MNZ033>034-036-042>043-049>051-058-059-211100-
   Central Minnesota

CITY           SKY/WX    TMP DP  RH WIND       PRES   REMARKS
ST CLOUD       CLOUDY    32  29  88 CALM      29.95F
SAUK CENTRE      N/A     32  28  86 CALM      29.95S
PAYNESVILLE    CLOUDY    33  31  94 CALM      29.95S
AITKIN         FAIR      25  23  93 CALM      29.94F
PINE RIVER     FOG       19  18  93 CALM      29.98S VSB 3/4
BRAINERD       FAIR      27  24  89 CALM      29.95F
STAPLES        FAIR      23  23 100 CALM      29.95S
LONG PRAIRIE   FAIR      30  28  93 CALM      29.95S
LITTLE FALLS   FAIR      30  25  80 CALM      29.96R
LITCHFIELD     CLOUDY    37  32  81 CALM      29.96R
BUFFALO        CLOUDY    36  29  78 N3        29.96F
MAPLE LAKE     CLOUDY    36  32  85 MISG      29.96S
HUTCHINSON     CLOUDY    34  32  92 CALM      29.96F
$$
MNZ037-044-045-052-053-211100-
   East Central Minnesota

CITY           SKY/WX    TMP DP  RH WIND       PRES   REMARKS
PRINCETON      MOCLDY    36  28  75 CALM      29.96R
MORA           FAIR      30  27  86 CALM      29.97F
CAMBRIDGE        N/A     36  27  69 CALM      29.96S
RUSH CITY      MOCLDY    32  28  86 CALM      29.95F
MOOSE LAKE     FAIR      32  27  80 NW5       29.94S WCI  27
HINCKLEY       FAIR      32  28  86 N3        29.95S
CLOQUET        FAIR      28  25  86 NW6       29.93F WCI  22
MCGREGOR       FAIR      27  25  93 CALM      29.95F
$$
MNZ071>073-080-081-089-090-097-098-211100-
   Southwest Minnesota

CITY           SKY/WX    TMP DP  RH WIND       PRES   REMARKS
MONTEVIDEO     CLOUDY    36  28  75 N3        29.96S
GRANITE FALLS  CLOUDY    35  32  87 W3        29.97F
CANBY          CLOUDY    37  31  80 W3        29.97S
MARSHALL       CLOUDY    36  28  73 N8        29.95F
REDWOOD FALLS  CLOUDY    35  30  82 CALM      29.94F
OLIVIA         CLOUDY    34  32  93 CALM      29.94F
PIPESTONE      CLOUDY    34  28  80 NE7       29.90F WCI  28
WINDOM         CLOUDY    34  19  55 N9        29.92F WCI  26
WORTHINGTON    CLOUDY    30  27  88 NE8       29.92S WCI  22
JACKSON        CLOUDY    30  28  93 NE7       29.92R WCI  23
TRACY          CLOUDY    36  30  80 NW8       29.94S
SLAYTON        MOCLDY    33  28  83 N6        29.93S WCI  27
$$
MNZ065>067-074>077-082>085-091>093-211100-
   South Central Minnesota

CITY           SKY/WX    TMP DP  RH WIND       PRES   REMARKS
MANKATO        MOCLDY    32  30  92 NE7       29.93F WCI  26
NEW ULM        CLOUDY    34  28  80 N3        29.94F
ST JAMES       CLOUDY    28  28 100 CALM      29.94F
FAIRMONT       CLOUDY    29  28  96 N5        29.93F WCI  24
FARIBAULT      CLOUDY    27  25  93 CALM      29.94F FOG
OWATONNA       FAIR      25  25 100 CALM      29.92F FOG
WASECA         FAIR      32  28  86 N10       29.93F WCI  24
ALBERT LEA     FAIR      28  28 100 NE5       29.91F FOG     WCI  23
$$
MNZ078>079-086>088-094>096-211100-
   Southeast Minnesota

CITY           SKY/WX    TMP DP  RH WIND       PRES   REMARKS
ROCHESTER      FAIR      28  27  96 N8        29.92F FOG     WCI  20
RED WING       MOCLDY    25  21  86 CALM      29.95F FOG
STANTON        FAIR      26  24  93 CALM      29.94F
DODGE CENTER   FAIR      28  28 100 N7        29.92F FOG     WCI  21
WINONA           N/A     23  21  93 CALM      29.94S FOG
PRESTON        FAIR      30  28  92 N3        29.92F FOG
$$
ABBREVIATIONS USED IN REMARKS
   TC - TEMPERATURES IN CELSIUS
  WCI - WIND CHILL INDEX
   HX - HEAT INDEX
  VSB - VISIBILITY
$$




USA.gov is the U.S. government's official web portal to all federal, state and local government web resources and services.